Content
SEND FEEDBACK

Philippines Flag

OLONGAPO, PHILIPPINES


Home > Asia > Philippines
Elevation: 55 feet     Latitude: 14 48N     Longitude: 120 16E

WEATHER
 
SELECT A DAY
Number of Records: 154,623;   Date Range: 7/31/96 - 3/22/16
 
SHARE

PRINT THIS DATA

[ ← Previous Day ]
WEATHER ALMANAC - JULY 5, 2013
[ Next Day → ]
[ °C ]   °F
Weather ElementAverageHighLow
Temperature84.4 °F91 °F (2:00 pm)80 °F (5:00 am)
Dewpoint75.7 °F77 °F (11:00 am)73.4 °F (11:00 pm)
Humidity73.9 %86 % (5:00 am)54 % (2:00 pm)
Barometer29.78 in29.86 in (11:00 pm)29.74 in (2:00 pm)
Wind Speed8.5 mph16.1 mph (11:00 pm)
Weather ElementAverage
Visibility7.5 mi
Wind DirectionSE (130.4 °)

Weather ElementTotal
Precipitation---
Cooling Degree Days20.5 (Base 65)
Growing Degree Days35.5 (Base 50)
Averaged from 25 records on July 5, 2013
WEATHER CONDITIONS BREAKOUT
WIND DIRECTION BREAKOUT
WEATHER BY HOUR - JULY 5, 2013
[ °C ]   °F
Local TimeTemperatureDewpointHumidityBarometerVisibilityWind DirectionWind SpeedGust SpeedPrecipitationEventsConditions
2:00 AM81.0 °F75.0 °F78 %29.79 in11.0 miEast (80°)11.2 mphHaze
2:00 AM80.6 °F75.2 °F84 %29.77 in6.2 miEast (80°)10.4 mphScattered Clouds
5:00 AM80.0 °F76.0 °F86 %29.77 in10.0 miEast (80°)11.2 mphRainLight Rain Showers
6:00 AM80.6 °F75.2 °F84 %29.77 in5.6 miEast (80°)10.4 mphOvercast
7:00 AM80.6 °F75.2 °F84 %29.77 in6.2 miENE (70°)11.5 mphOvercast
8:00 AM80.6 °F75.2 °F84 %29.77 in6.2 miENE (60°)9.2 mphOvercast
8:00 AM81.0 °F74.0 °F75 %29.79 in11.0 miENE (60°)8.9 mphHaze
9:00 AM80.6 °F75.2 °F84 %29.77 in6.2 miENE (60°)11.5 mphOvercast
10:00 AM84.2 °F75.2 °F74 %29.77 in6.2 miENE (70°)10.4 mphMostly Cloudy
11:00 AM86.0 °F77.0 °F74 %29.77 in6.2 miENE (60°)9.2 mphMostly Cloudy
1:00 PM87.8 °F77.0 °F70 %29.77 in6.2 miNE (50°)1.2 mphMostly Cloudy
2:00 PM89.6 °F77.0 °F66 %29.74 in6.2 miWSW (240°)5.8 mphMostly Cloudy
2:00 PM91.0 °F76.0 °F54 %29.76 in12.0 miWSW (240°)6.7 mphHaze
3:00 PM89.6 °F77.0 °F66 %29.74 in6.2 miSW (230°)10.4 mphScattered Clouds
4:00 PM89.6 °F77.0 °F66 %29.74 in6.2 miSW (220°)9.2 mphScattered Clouds
5:00 PM90.0 °F77.0 °F58 %29.75 in12.0 miSW (220°)8.9 mphHaze
5:00 PM89.6 °F77.0 °F66 %29.74 in6.2 miSW (220°)9.2 mphMostly Cloudy
6:00 PM87.8 °F77.0 °F70 %29.74 in6.2 miSSW (200°)5.8 mphMostly Cloudy
7:00 PM86.0 °F75.2 °F70 %29.77 in6.2 miSouth (170°)5.8 mphMostly Cloudy
8:00 PM84.0 °F76.0 °F70 %29.80 in11.0 miSouth (170°)2.2 mphHaze
8:00 PM84.2 °F75.2 °F74 %29.77 in6.2 miSouth (170°)2.3 mphScattered Clouds
9:00 PM82.4 °F75.2 °F79 %29.80 in6.2 miSouth (170°)5.8 mphMostly Cloudy
10:00 PM82.4 °F75.2 °F79 %29.83 in6.2 miENE (60°)4.6 mphScattered Clouds
11:00 PM81.0 °F74.0 °F73 %29.86 in10.0 miEast (100°)15.7 mphRainLight Rain Showers
11:00 PM80.6 °F73.4 °F79 %29.86 in5.6 miEast (100°)16.1 mphRainLight Rain Showers
Hourly data recorded from RPLB, located miles away from Olongapo, Philippines




STORIES FROM OUR PARTNERS